Location: Recife
(8.0585°S, 34.8848°W)
Time: 12:36:38
(UTC-03:00)

Vanguard 1 - Pass Details

Date: 22 April 2026
Orbit: 654 x 3817 km, 34.3° (Epoch: 11 May)

Event Time Altitude Azimuth Distance (km) Brightness Sun altitude
Rises 04:21:34 0° 322° (NW) 6,680 14.0 -15.4°
Reaches altitude 10° 04:27:26 10° 331° (NNW) 5,102 13.5 -14.0°
Maximum altitude 04:38:25 31° 27° (NNE) 2,584 12.6 -11.3°
Drops below altitude 10° 04:45:07 10° 86° (E) 3,075 14.2 -9.7°
Sets 04:47:40 0° 98° (E) 3,748 14.6 -9.1°
